contact:dominique.lefevre@mio.osupytheas.fr, maurice.libes@osupytheas.fr, didier.mallarino@osupytheas.fr
Project:EMSO http://www.emso-fr.org/EMSO-France
Depth: 2436.0 m
Title:EMSO Ligure Ouest : Data MII capteur AQUADOPP
Date,Latitude,Longitude,X_East,Y_North,Z_Up,Amplitude_X,Amplitude_Y,Amplitude_Z,Batterie,SoundSpeed,Heading,Pitch,Roll,Pressure,TIS,Speed,Direction
, degrees North, degrees East, m.s-1, m.s-1,m.s-1, 1, 1, 1, Volt, m.s-1, degree, degree, degree, dbar, degree_C, m.s-1, degree
2021-05-29T00:04:03,42.805,6.029,-0.015,-0.021,-0.017,101.0,102.0,101.0,13.4,1505.2,328.8,-0.8,1.8,2470.477,13.28,0.025,215.5
2021-05-29T00:07:03,42.805,6.029,-0.016,-0.003,-0.001,102.0,101.0,101.0,13.4,1505.2,327.8,-0.7,1.8,2470.423,13.28,0.016,259.4
2021-05-29T00:10:03,42.805,6.029,-0.029,-0.013,-0.002,102.0,100.0,101.0,13.3,1505.2,329.2,-0.7,1.8,2470.438,13.28,0.031,245.9
2021-05-29T00:13:03,42.805,6.029,-0.032,-0.023,-0.016,102.0,102.0,101.0,13.4,1505.2,327.1,-0.8,1.8,2470.447,13.28,0.039,234.3
2021-05-29T00:16:03,42.805,6.029,-0.033,-0.016,-0.028,102.0,100.0,101.0,13.4,1505.2,328.4,-0.8,1.8,2470.436,13.28,0.036,244.1
2021-05-29T00:19:03,42.805,6.029,-0.032,-0.029,-0.056,101.0,102.0,101.0,13.3,1505.2,327.9,-0.8,1.8,2470.45,13.28,0.043,227.8
2021-05-29T00:22:03,42.805,6.029,-0.026,-0.033,-0.028,101.0,101.0,101.0,13.4,1505.2,326.4,-0.8,1.8,2470.428,13.28,0.042,218.2
2021-05-29T00:25:03,42.805,6.029,-0.023,-0.011,-0.012,101.0,101.0,100.0,13.4,1505.2,328.5,-0.8,1.8,2470.431,13.28,0.025,244.4
2021-05-29T00:28:03,42.805,6.029,-0.04,-0.02,-0.014,102.0,101.0,100.0,13.4,1505.2,328.9,-0.7,1.8,2470.449,13.28,0.044,243.4
2021-05-29T00:31:03,42.805,6.029,-0.018,-0.027,-0.002,102.0,101.0,100.0,13.3,1505.2,327.1,-0.8,1.8,2470.457,13.28,0.032,213.7
2021-05-29T00:34:03,42.805,6.029,-0.027,-0.011,-0.012,101.0,101.0,100.0,13.4,1505.2,328.7,-0.8,1.8,2470.401,13.28,0.029,247.8
2021-05-29T00:37:03,42.805,6.029,-0.012,-0.034,-0.036,101.0,101.0,100.0,13.4,1505.2,327.2,-0.8,1.9,2470.406,13.28,0.036,199.4
2021-05-29T00:40:03,42.805,6.029,-0.024,0.01,0.045,101.0,100.0,100.0,13.4,1505.2,328.1,-0.7,1.8,2470.435,13.28,0.026,292.6
2021-05-29T00:43:03,42.805,6.029,-0.019,-0.006,0.01,101.0,103.0,100.0,13.3,1505.2,325.9,-0.7,1.8,2470.417,13.28,0.019,252.5
2021-05-29T00:46:03,42.805,6.029,-0.002,-0.03,-0.001,100.0,102.0,100.0,13.4,1505.2,326.2,-0.8,1.8,2470.407,13.28,0.03,183.8
2021-05-29T00:49:03,42.805,6.029,-0.054,-0.035,-0.038,100.0,100.0,101.0,13.4,1505.2,327.1,-0.8,1.8,2470.412,13.28,0.064,237.0
2021-05-29T00:52:03,42.805,6.029,-0.027,-0.024,0.012,101.0,102.0,100.0,13.4,1505.2,326.0,-0.7,1.8,2470.408,13.28,0.036,228.4
2021-05-29T00:55:03,42.805,6.029,-0.01,-0.037,-0.027,101.0,101.0,100.0,13.4,1505.2,328.1,-0.8,1.8,2470.411,13.28,0.038,195.1
2021-05-29T00:58:03,42.805,6.029,-0.016,-0.016,-0.031,101.0,101.0,101.0,13.4,1505.2,329.0,-0.8,1.8,2470.381,13.28,0.022,225.0
2021-05-29T01:04:03,42.805,6.029,-0.036,-0.02,-0.017,101.0,101.0,101.0,13.3,1505.2,325.9,-0.7,1.8,2470.413,13.28,0.041,240.9
2021-05-29T01:07:03,42.805,6.029,-0.014,-0.01,0.013,101.0,100.0,100.0,13.4,1505.2,326.6,-0.8,1.8,2470.445,13.28,0.017,234.5
2021-05-29T01:10:03,42.805,6.029,-0.029,-0.027,-0.027,101.0,100.0,101.0,13.4,1505.2,329.2,-0.7,1.8,2470.4,13.28,0.039,227.0
2021-05-29T01:13:03,42.805,6.029,-0.029,-0.03,-0.013,101.0,101.0,100.0,13.3,1505.2,326.0,-0.7,1.8,2470.393,13.28,0.041,224.0
2021-05-29T01:16:03,42.805,6.029,-0.022,-0.026,-0.016,101.0,101.0,100.0,13.4,1505.2,325.6,-0.8,1.8,2470.403,13.28,0.034,220.2
2021-05-29T01:19:03,42.805,6.029,-0.016,-0.007,-0.004,101.0,101.0,101.0,13.3,1505.2,327.4,-0.8,1.9,2470.376,13.28,0.017,246.4
2021-05-29T01:22:03,42.805,6.029,-0.035,0.002,0.005,101.0,99.0,100.0,13.4,1505.2,326.0,-0.8,1.8,2470.345,13.28,0.035,273.3
2021-05-29T01:25:03,42.805,6.029,-0.015,-0.027,0.001,100.0,101.0,100.0,13.3,1505.2,328.2,-0.7,1.8,2470.425,13.28,0.03,209.1
2021-05-29T01:28:03,42.805,6.029,-0.034,-0.035,-0.022,101.0,99.0,100.0,13.4,1505.2,324.4,-0.8,1.8,2470.353,13.28,0.048,224.2
2021-05-29T01:31:03,42.805,6.029,-0.034,-0.028,-0.021,99.0,101.0,101.0,13.4,1505.2,328.5,-0.8,1.8,2470.399,13.28,0.044,230.5
2021-05-29T01:34:03,42.805,6.029,-0.017,-0.049,-0.047,102.0,99.0,102.0,13.4,1505.2,326.0,-0.8,1.8,2470.373,13.28,0.051,199.1
2021-05-29T01:37:03,42.805,6.029,-0.021,-0.007,-0.011,101.0,100.0,101.0,13.4,1505.2,326.8,-0.8,1.8,2470.353,13.28,0.022,251.6
2021-05-29T01:40:03,42.805,6.029,-0.025,-0.018,-0.016,100.0,102.0,100.0,13.4,1505.2,328.9,-0.8,1.8,2470.352,13.28,0.03,234.2
2021-05-29T01:43:03,42.805,6.029,-0.045,0.002,0.004,100.0,100.0,100.0,13.3,1505.2,328.2,-0.8,1.8,2470.36,13.28,0.045,272.5
2021-05-29T01:46:03,42.805,6.029,-0.008,-0.021,0.001,101.0,99.0,101.0,13.4,1505.2,327.1,-0.7,1.8,2470.398,13.28,0.022,200.9
2021-05-29T01:49:03,42.805,6.029,-0.038,-0.034,-0.027,102.0,100.0,100.0,13.4,1505.2,326.9,-0.7,1.8,2470.34,13.28,0.05,228.2
2021-05-29T01:52:03,42.805,6.029,-0.046,-0.009,0.0,102.0,101.0,101.0,13.4,1505.2,325.9,-0.8,1.8,2470.341,13.28,0.046,258.9
2021-05-29T01:55:03,42.805,6.029,-0.021,0.0,-0.017,99.0,102.0,100.0,13.4,1505.2,325.5,-0.8,1.9,2470.374,13.28,0.021,270.0
2021-05-29T01:58:03,42.805,6.029,-0.007,-0.014,-0.006,102.0,100.0,100.0,13.3,1505.2,326.4,-0.7,1.8,2470.317,13.28,0.015,206.6
2021-05-29T02:04:03,42.805,6.029,-0.012,-0.024,-0.006,104.0,102.0,101.0,13.4,1505.2,324.5,-0.7,1.8,2470.358,13.28,0.026,206.6
2021-05-29T02:07:03,42.805,6.029,-0.015,-0.027,-0.022,100.0,101.0,100.0,13.4,1505.2,330.0,-0.7,1.8,2470.385,13.28,0.03,209.1
2021-05-29T02:10:03,42.805,6.029,-0.017,-0.022,0.0,100.0,101.0,100.0,13.4,1505.2,328.9,-0.8,1.8,2470.368,13.28,0.027,217.7
2021-05-29T02:13:03,42.805,6.029,-0.033,-0.052,-0.063,101.0,101.0,101.0,13.4,1505.2,324.9,-0.7,1.8,2470.356,13.28,0.061,212.4
2021-05-29T02:16:03,42.805,6.029,-0.005,-0.023,-0.015,103.0,100.0,99.0,13.4,1505.2,328.4,-0.7,1.8,2470.341,13.28,0.023,192.3
2021-05-29T02:19:03,42.805,6.029,-0.013,-0.038,-0.01,101.0,102.0,98.0,13.4,1505.2,326.0,-0.7,1.8,2470.374,13.28,0.04,198.9
2021-05-29T02:22:03,42.805,6.029,-0.02,-0.015,-0.012,103.0,99.0,100.0,13.4,1505.2,329.4,-0.7,1.9,2470.343,13.28,0.025,233.1
2021-05-29T02:25:03,42.805,6.029,-0.012,-0.018,0.009,102.0,100.0,102.0,13.3,1505.2,325.7,-0.7,1.8,2470.329,13.28,0.021,213.7
2021-05-29T02:28:03,42.805,6.029,-0.008,-0.018,0.003,101.0,101.0,101.0,13.4,1505.2,327.6,-0.7,1.8,2470.331,13.28,0.019,204.0
2021-05-29T02:31:03,42.805,6.029,-0.003,-0.017,-0.014,100.0,101.0,100.0,13.4,1505.2,329.4,-0.8,1.8,2470.329,13.28,0.017,190.0
2021-05-29T02:34:03,42.805,6.029,-0.017,-0.035,-0.061,101.0,101.0,101.0,13.4,1505.2,327.6,-0.7,1.9,2470.283,13.28,0.038,205.9
2021-05-29T02:37:03,42.805,6.029,-0.011,-0.022,-0.034,103.0,101.0,101.0,13.4,1505.2,328.0,-0.7,1.8,2470.32,13.28,0.024,206.6
2021-05-29T02:40:03,42.805,6.029,-0.032,-0.01,0.005,101.0,101.0,100.0,13.4,1505.2,328.1,-0.8,1.8,2470.377,13.28,0.033,252.6
2021-05-29T02:43:03,42.805,6.029,-0.024,-0.017,-0.009,101.0,101.0,102.0,13.3,1505.2,325.7,-0.7,1.8,2470.358,13.28,0.029,234.7
2021-05-29T02:46:03,42.805,6.029,-0.029,-0.048,-0.023,100.0,101.0,100.0,13.4,1505.2,328.4,-0.8,1.8,2470.355,13.28,0.056,211.1
2021-05-29T02:49:03,42.805,6.029,-0.024,-0.008,0.04,99.0,100.0,101.0,13.4,1505.2,327.8,-0.7,1.8,2470.306,13.28,0.025,251.6
2021-05-29T02:52:03,42.805,6.029,-0.031,-0.021,-0.023,100.0,101.0,101.0,13.4,1505.2,329.7,-0.7,1.8,2470.342,13.28,0.037,235.9
2021-05-29T02:55:03,42.805,6.029,-0.013,-0.013,0.006,101.0,100.0,101.0,13.3,1505.2,326.6,-0.7,1.8,2470.308,13.28,0.018,225.0
2021-05-29T02:58:03,42.805,6.029,-0.026,-0.024,-0.017,102.0,102.0,102.0,13.4,1505.2,326.7,-0.7,1.9,2470.307,13.28,0.035,227.3
2021-05-29T03:04:03,42.805,6.029,-0.033,-0.034,0.0,101.0,102.0,100.0,13.3,1505.2,326.8,-0.8,1.8,2470.314,13.28,0.047,224.1
2021-05-29T03:07:03,42.805,6.029,-0.012,-0.018,0.023,100.0,101.0,102.0,13.3,1505.2,325.1,-0.7,1.8,2470.328,13.28,0.021,213.7
2021-05-29T03:10:03,42.805,6.029,-0.034,-0.016,-0.023,101.0,100.0,101.0,13.4,1505.2,325.7,-0.7,1.8,2470.32,13.28,0.037,244.8
2021-05-29T03:13:03,42.805,6.029,-0.032,-0.023,-0.045,100.0,100.0,100.0,13.4,1505.2,327.3,-0.7,1.8,2470.325,13.28,0.039,234.3
2021-05-29T03:16:03,42.805,6.029,-0.013,-0.037,-0.004,101.0,101.0,100.0,13.4,1505.2,327.2,-0.7,1.8,2470.314,13.28,0.039,199.4
2021-05-29T03:19:03,42.805,6.029,-0.009,-0.021,-0.036,100.0,101.0,101.0,13.4,1505.2,325.2,-0.7,1.8,2470.311,13.28,0.022,203.2
2021-05-29T03:22:03,42.805,6.029,-0.008,-0.039,-0.035,102.0,101.0,100.0,13.4,1505.2,326.9,-0.7,1.8,2470.287,13.28,0.039,191.6
2021-05-29T03:25:03,42.805,6.029,-0.035,-0.013,-0.009,102.0,100.0,101.0,13.3,1505.2,328.4,-0.7,1.8,2470.281,13.28,0.037,249.6
2021-05-29T03:28:03,42.805,6.029,-0.039,-0.024,-0.003,102.0,102.0,99.0,13.3,1505.2,325.9,-0.7,1.8,2470.293,13.28,0.045,238.4
2021-05-29T03:31:03,42.805,6.029,-0.017,-0.012,0.003,101.0,101.0,100.0,13.3,1505.2,325.5,-0.7,1.8,2470.309,13.29,0.02,234.8
2021-05-29T03:34:03,42.805,6.029,-0.02,-0.035,-0.007,101.0,99.0,100.0,13.4,1505.2,328.1,-0.7,1.8,2470.246,13.28,0.04,209.7
2021-05-29T03:37:03,42.805,6.029,-0.011,-0.023,-0.011,100.0,102.0,99.0,13.4,1505.2,324.8,-0.8,1.8,2470.325,13.29,0.025,205.6
2021-05-29T03:40:03,42.805,6.029,-0.025,-0.035,-0.019,102.0,101.0,99.0,13.3,1505.2,325.0,-0.7,1.8,2470.282,13.29,0.043,215.5
2021-05-29T03:43:03,42.805,6.029,-0.033,-0.03,-0.051,99.0,100.0,102.0,13.4,1505.2,325.9,-0.7,1.8,2470.34,13.29,0.044,227.7
2021-05-29T03:46:03,42.805,6.029,-0.025,-0.001,0.011,101.0,101.0,100.0,13.4,1505.2,325.4,-0.8,1.8,2470.314,13.29,0.025,267.7
2021-05-29T03:49:03,42.805,6.029,-0.006,-0.012,0.001,105.0,100.0,100.0,13.4,1505.2,327.2,-0.7,1.9,2470.291,13.29,0.013,206.6
2021-05-29T03:52:03,42.805,6.029,-0.015,-0.017,-0.016,100.0,102.0,101.0,13.3,1505.2,327.8,-0.8,1.9,2470.291,13.29,0.022,221.4
2021-05-29T03:55:03,42.805,6.029,0.002,-0.033,-0.014,100.0,101.0,100.0,13.4,1505.2,328.6,-0.7,1.8,2470.301,13.29,0.033,176.5
2021-05-29T03:58:03,42.805,6.029,-0.001,-0.029,0.001,100.0,101.0,100.0,13.4,1505.2,328.7,-0.7,1.8,2470.348,13.29,0.029,182.0
2021-05-29T04:04:03,42.805,6.029,-0.003,-0.036,-0.022,101.0,100.0,100.0,13.4,1505.2,327.9,-0.7,1.8,2470.293,13.28,0.036,184.8
2021-05-29T04:07:03,42.805,6.029,-0.013,-0.029,-0.012,102.0,102.0,100.0,13.4,1505.2,327.7,-0.8,1.8,2470.319,13.28,0.031,204.1
2021-05-29T04:10:03,42.805,6.029,-0.024,-0.022,0.012,100.0,101.0,100.0,13.4,1505.2,327.5,-0.7,1.8,2470.319,13.28,0.032,227.5
2021-05-29T04:13:03,42.805,6.029,0.008,-0.027,0.016,101.0,101.0,103.0,13.4,1505.2,329.3,-0.8,1.8,2470.281,13.28,0.028,163.5
2021-05-29T04:16:03,42.805,6.029,-0.015,-0.032,-0.034,100.0,101.0,101.0,13.3,1505.2,325.2,-0.7,1.8,2470.329,13.28,0.035,205.1
2021-05-29T04:19:03,42.805,6.029,-0.032,-0.03,-0.043,101.0,102.0,100.0,13.4,1505.2,325.3,-0.8,1.8,2470.244,13.28,0.043,226.9
2021-05-29T04:22:03,42.805,6.029,-0.013,-0.027,-0.034,102.0,101.0,99.0,13.4,1505.2,328.1,-0.8,1.9,2470.262,13.28,0.029,205.7
2021-05-29T04:25:03,42.805,6.029,-0.006,-0.021,0.006,100.0,102.0,100.0,13.4,1505.2,327.8,-0.8,1.8,2470.287,13.28,0.021,195.9
2021-05-29T04:28:03,42.805,6.029,-0.017,-0.04,0.013,101.0,101.0,101.0,13.4,1505.2,325.9,-0.7,1.8,2470.297,13.28,0.043,203.0
2021-05-29T04:31:03,42.805,6.029,-0.01,-0.033,-0.006,101.0,100.0,102.0,13.4,1505.2,326.4,-0.8,1.8,2470.302,13.28,0.034,196.9
2021-05-29T04:34:03,42.805,6.029,0.001,-0.02,-0.025,101.0,102.0,102.0,13.4,1505.2,327.9,-0.7,1.8,2470.331,13.28,0.02,177.1
2021-05-29T04:37:03,42.805,6.029,-0.026,-0.025,0.02,101.0,101.0,101.0,13.4,1505.2,327.0,-0.8,1.8,2470.296,13.29,0.036,226.1
2021-05-29T04:40:03,42.805,6.029,-0.014,-0.04,-0.01,101.0,100.0,100.0,13.4,1505.2,328.7,-0.8,1.8,2470.293,13.29,0.042,199.3
2021-05-29T04:43:03,42.805,6.029,-0.003,-0.034,0.002,102.0,99.0,101.0,13.4,1505.2,328.8,-0.8,1.8,2470.296,13.29,0.034,185.0
2021-05-29T04:46:03,42.805,6.029,0.002,-0.032,-0.035,100.0,100.0,101.0,13.3,1505.2,327.8,-0.7,1.8,2470.284,13.29,0.032,176.4
2021-05-29T04:49:03,42.805,6.029,0.002,-0.032,-0.013,101.0,101.0,101.0,13.4,1505.2,327.8,-0.8,1.8,2470.308,13.28,0.032,176.4
2021-05-29T04:52:03,42.805,6.029,-0.017,-0.017,-0.009,101.0,101.0,101.0,13.4,1505.2,326.7,-0.8,1.8,2470.287,13.28,0.024,225.0
2021-05-29T04:55:03,42.805,6.029,-0.038,-0.013,-0.014,101.0,100.0,100.0,13.3,1505.2,324.4,-0.7,1.8,2470.24,13.28,0.04,251.1
2021-05-29T04:58:03,42.805,6.029,-0.011,-0.024,-0.007,100.0,101.0,100.0,13.3,1505.2,328.2,-0.8,1.8,2470.278,13.28,0.026,204.6
2021-05-29T05:04:03,42.805,6.029,-0.014,-0.017,-0.017,99.0,103.0,100.0,13.4,1505.2,328.8,-0.8,1.8,2470.307,13.28,0.022,219.5
2021-05-29T05:07:03,42.805,6.029,-0.016,-0.01,-0.031,101.0,101.0,100.0,13.3,1505.2,328.9,-0.8,1.8,2470.317,13.28,0.018,238.0
2021-05-29T05:10:03,42.805,6.029,-0.013,-0.015,0.031,102.0,98.0,100.0,13.3,1505.2,325.6,-0.7,1.8,2470.295,13.28,0.019,220.9
2021-05-29T05:13:03,42.805,6.029,-0.017,-0.014,0.001,102.0,101.0,100.0,13.4,1505.2,324.3,-0.8,1.8,2470.339,13.28,0.022,230.5
2021-05-29T05:16:03,42.805,6.029,0.001,-0.002,0.034,101.0,101.0,100.0,13.3,1505.2,329.3,-0.7,1.9,2470.274,13.28,0.002,153.4
2021-05-29T05:19:03,42.805,6.029,-0.02,-0.014,0.0,101.0,100.0,101.0,13.4,1505.2,328.5,-0.8,1.8,2470.276,13.28,0.024,235.0
2021-05-29T05:22:03,42.805,6.029,-0.03,0.002,0.02,100.0,103.0,100.0,13.3,1505.2,326.3,-0.7,1.8,2470.311,13.28,0.03,273.8
2021-05-29T05:25:03,42.805,6.029,-0.006,-0.033,-0.03,100.0,102.0,100.0,13.3,1505.2,324.1,-0.8,1.8,2470.272,13.28,0.033,190.3
2021-05-29T05:28:03,42.805,6.029,-0.019,-0.023,-0.01,101.0,100.0,101.0,13.4,1505.2,326.1,-0.8,1.8,2470.318,13.28,0.029,219.6
2021-05-29T05:31:03,42.805,6.029,-0.028,-0.017,-0.004,101.0,100.0,100.0,13.4,1505.2,327.4,-0.8,1.8,2470.272,13.28,0.032,238.7
2021-05-29T05:34:03,42.805,6.029,-0.01,-0.027,0.002,100.0,100.0,100.0,13.4,1505.2,328.3,-0.7,1.8,2470.297,13.28,0.028,200.3
2021-05-29T05:37:03,42.805,6.029,-0.019,-0.008,0.002,100.0,103.0,101.0,13.4,1505.2,329.2,-0.7,1.8,2470.314,13.28,0.02,247.2
2021-05-29T05:40:03,42.805,6.029,0.0,-0.031,-0.016,100.0,100.0,101.0,13.4,1505.2,325.2,-0.7,1.8,2470.275,13.29,0.03,180.0
2021-05-29T05:43:03,42.805,6.029,-0.007,-0.028,-0.007,99.0,100.0,101.0,13.4,1505.2,326.9,-0.7,1.8,2470.3,13.28,0.028,194.0
2021-05-29T05:46:03,42.805,6.029,-0.015,-0.015,-0.008,101.0,102.0,100.0,13.4,1505.2,327.9,-0.8,1.8,2470.288,13.28,0.021,225.0
2021-05-29T05:49:03,42.805,6.029,-0.034,-0.011,-0.036,101.0,99.0,101.0,13.4,1505.2,327.0,-0.7,1.8,2470.303,13.28,0.035,252.1
2021-05-29T05:52:03,42.805,6.029,-0.021,-0.024,-0.013,100.0,101.0,101.0,13.4,1505.2,327.7,-0.8,1.8,2470.303,13.28,0.031,221.2
2021-05-29T05:55:03,42.805,6.029,-0.005,-0.038,0.019,102.0,101.0,101.0,13.4,1505.2,328.2,-0.8,1.8,2470.323,13.28,0.038,187.5
2021-05-29T05:58:03,42.805,6.029,-0.022,-0.018,-0.021,100.0,100.0,103.0,13.4,1505.2,327.7,-0.7,1.8,2470.335,13.28,0.028,230.7
2021-05-29T06:04:03,42.805,6.029,-0.033,-0.02,-0.011,101.0,100.0,101.0,13.4,1505.2,328.5,-0.7,1.8,2470.346,13.28,0.038,238.8
2021-05-29T06:07:03,42.805,6.029,-0.017,-0.01,0.022,100.0,100.0,100.0,13.3,1505.2,327.4,-0.7,1.8,2470.35,13.28,0.019,239.5
2021-05-29T06:10:03,42.805,6.029,-0.009,-0.034,-0.009,100.0,99.0,100.0,13.4,1505.2,324.7,-0.8,1.8,2470.34,13.28,0.035,194.8
2021-05-29T06:13:03,42.805,6.029,0.004,-0.014,-0.005,100.0,101.0,100.0,13.4,1505.2,326.4,-0.8,1.8,2470.328,13.28,0.014,164.1
2021-05-29T06:16:03,42.805,6.029,-0.014,-0.021,-0.018,101.0,101.0,100.0,13.3,1505.2,328.5,-0.8,1.9,2470.355,13.28,0.025,213.7
2021-05-29T06:19:03,42.805,6.029,-0.01,-0.03,-0.005,101.0,100.0,100.0,13.4,1505.2,328.1,-0.8,1.8,2470.35,13.28,0.031,198.4
2021-05-29T06:22:03,42.805,6.029,-0.011,-0.037,-0.016,100.0,100.0,101.0,13.4,1505.2,329.8,-0.7,1.8,2470.331,13.29,0.038,196.6
2021-05-29T06:25:03,42.805,6.029,-0.017,-0.021,0.002,100.0,99.0,101.0,13.4,1505.2,326.1,-0.7,1.9,2470.333,13.29,0.027,219.0
2021-05-29T06:28:03,42.805,6.029,-0.004,0.014,0.029,99.0,101.0,100.0,13.4,1505.2,328.8,-0.8,1.9,2470.373,13.29,0.014,344.1
2021-05-29T06:31:03,42.805,6.029,-0.006,-0.023,-0.014,100.0,103.0,99.0,13.4,1505.2,328.5,-0.8,1.9,2470.39,13.28,0.023,194.6
2021-05-29T06:34:03,42.805,6.029,-0.037,-0.029,-0.033,102.0,101.0,102.0,13.4,1505.2,328.3,-0.8,1.8,2470.36,13.28,0.047,231.9
2021-05-29T06:37:03,42.805,6.029,-0.034,-0.019,-0.041,100.0,101.0,101.0,13.4,1505.2,324.7,-0.7,1.8,2470.333,13.28,0.038,240.8
2021-05-29T06:40:03,42.805,6.029,-0.008,-0.024,-0.009,100.0,103.0,101.0,13.4,1505.2,324.4,-0.7,1.8,2470.384,13.28,0.025,198.4
2021-05-29T06:43:03,42.805,6.029,-0.005,-0.033,-0.003,101.0,101.0,100.0,13.3,1505.2,328.3,-0.8,1.8,2470.346,13.28,0.033,188.6
2021-05-29T06:46:03,42.805,6.029,-0.026,-0.035,-0.035,100.0,101.0,100.0,13.3,1505.2,326.8,-0.7,1.8,2470.333,13.28,0.043,216.6
2021-05-29T06:49:03,42.805,6.029,-0.004,-0.004,0.002,101.0,100.0,100.0,13.4,1505.2,326.7,-0.7,1.8,2470.317,13.28,0.005,225.0
2021-05-29T06:52:03,42.805,6.029,-0.021,-0.04,-0.032,99.0,101.0,100.0,13.4,1505.2,328.0,-0.8,1.8,2470.394,13.28,0.045,207.7
2021-05-29T06:55:03,42.805,6.029,-0.012,-0.033,-0.004,99.0,101.0,100.0,13.4,1505.2,328.6,-0.7,1.8,2470.321,13.28,0.035,200.0
2021-05-29T06:58:03,42.805,6.029,0.005,-0.052,-0.025,99.0,102.0,101.0,13.4,1505.2,327.5,-0.8,1.8,2470.348,13.28,0.052,174.5
2021-05-29T07:04:03,42.805,6.029,-0.008,-0.022,-0.012,99.0,101.0,102.0,13.4,1505.2,328.3,-0.7,1.8,2470.373,13.28,0.023,200.0
2021-05-29T07:07:03,42.805,6.029,-0.005,-0.024,0.023,101.0,100.0,100.0,13.4,1505.2,326.1,-0.8,1.8,2470.364,13.28,0.024,191.8
2021-05-29T07:10:03,42.805,6.029,-0.025,-0.003,0.008,100.0,101.0,100.0,13.4,1505.2,329.2,-0.8,1.9,2470.355,13.28,0.025,263.2
2021-05-29T07:13:03,42.805,6.029,-0.025,-0.013,-0.034,102.0,100.0,99.0,13.4,1505.2,328.9,-0.7,1.8,2470.372,13.28,0.028,242.5
2021-05-29T07:16:03,42.805,6.029,-0.006,-0.023,0.0,99.0,101.0,100.0,13.4,1505.2,328.4,-0.7,1.8,2470.371,13.28,0.023,194.6
2021-05-29T07:19:03,42.805,6.029,-0.02,-0.007,0.008,99.0,101.0,101.0,13.4,1505.2,329.3,-0.8,1.8,2470.377,13.28,0.021,250.7
2021-05-29T07:22:03,42.805,6.029,-0.034,-0.018,0.003,101.0,100.0,100.0,13.4,1505.2,325.1,-0.7,1.8,2470.337,13.28,0.038,242.1
2021-05-29T07:25:03,42.805,6.029,-0.011,-0.023,-0.001,100.0,100.0,99.0,13.4,1505.2,326.6,-0.7,1.9,2470.397,13.28,0.025,205.6
2021-05-29T07:28:03,42.805,6.029,-0.01,-0.035,-0.008,100.0,101.0,100.0,13.3,1505.2,326.7,-0.7,1.8,2470.358,13.28,0.036,195.9
2021-05-29T07:31:03,42.805,6.029,-0.02,-0.02,-0.019,99.0,100.0,100.0,13.4,1505.2,327.3,-0.8,1.8,2470.322,13.28,0.028,225.0
2021-05-29T07:34:03,42.805,6.029,-0.013,-0.027,-0.014,101.0,100.0,100.0,13.4,1505.2,325.0,-0.8,1.8,2470.412,13.28,0.029,205.7
2021-05-29T07:37:03,42.805,6.029,-0.009,-0.025,0.003,102.0,101.0,99.0,13.3,1505.2,325.6,-0.8,1.9,2470.401,13.28,0.026,199.8
2021-05-29T07:40:03,42.805,6.029,0.0,-0.031,-0.025,100.0,101.0,100.0,13.3,1505.2,327.1,-0.8,1.8,2470.397,13.28,0.03,180.0
2021-05-29T07:43:03,42.805,6.029,0.013,-0.036,-0.006,100.0,101.0,101.0,13.4,1505.2,324.4,-0.8,1.8,2470.385,13.28,0.038,160.1
2021-05-29T07:46:03,42.805,6.029,-0.028,-0.043,-0.028,100.0,101.0,99.0,13.4,1505.2,328.5,-0.8,1.9,2470.379,13.28,0.051,213.1
2021-05-29T07:49:03,42.805,6.029,-0.017,-0.03,0.003,99.0,100.0,101.0,13.4,1505.2,326.1,-0.8,1.8,2470.379,13.28,0.034,209.5
2021-05-29T07:52:03,42.805,6.029,-0.045,0.018,0.005,100.0,101.0,99.0,13.4,1505.2,326.5,-0.7,1.8,2470.384,13.28,0.048,291.8
2021-05-29T07:55:03,42.805,6.029,-0.02,-0.024,-0.005,100.0,100.0,101.0,13.4,1505.2,325.3,-0.8,1.8,2470.376,13.28,0.031,219.8
2021-05-29T07:58:03,42.805,6.029,-0.008,-0.015,0.011,100.0,100.0,99.0,13.4,1505.2,325.2,-0.7,1.8,2470.351,13.28,0.017,208.1
2021-05-29T08:04:03,42.805,6.029,-0.007,-0.034,0.004,100.0,100.0,101.0,13.4,1505.2,327.9,-0.7,1.8,2470.393,13.28,0.034,191.6
2021-05-29T08:07:03,42.805,6.029,-0.009,-0.026,0.003,101.0,100.0,101.0,13.4,1505.2,328.4,-0.8,1.8,2470.414,13.28,0.027,199.1
2021-05-29T08:10:03,42.805,6.029,0.006,-0.035,-0.013,101.0,100.0,100.0,13.4,1505.2,327.9,-0.8,1.8,2470.411,13.28,0.035,170.3
2021-05-29T08:13:03,42.805,6.029,-0.024,-0.017,0.013,100.0,100.0,100.0,13.4,1505.2,327.1,-0.7,1.8,2470.404,13.28,0.029,234.7
2021-05-29T08:16:03,42.805,6.029,-0.009,-0.015,0.004,100.0,101.0,100.0,13.4,1505.2,329.9,-0.8,1.9,2470.432,13.28,0.017,211.0
2021-05-29T08:19:03,42.805,6.029,-0.033,-0.025,-0.01,99.0,101.0,100.0,13.4,1505.2,325.8,-0.8,1.8,2470.437,13.28,0.041,232.9
2021-05-29T08:22:03,42.805,6.029,-0.037,-0.022,-0.014,100.0,102.0,102.0,13.4,1505.2,327.9,-0.7,1.8,2470.408,13.28,0.043,239.3
2021-05-29T08:25:03,42.805,6.029,-0.019,-0.021,0.021,100.0,101.0,100.0,13.3,1505.2,326.7,-0.8,1.8,2470.419,13.28,0.028,222.1
2021-05-29T08:28:03,42.805,6.029,-0.009,-0.036,-0.014,100.0,102.0,99.0,13.4,1505.2,328.1,-0.8,1.8,2470.445,13.28,0.037,194.0
2021-05-29T08:31:03,42.805,6.029,-0.033,-0.02,-0.013,100.0,100.0,101.0,13.4,1505.2,328.1,-0.7,1.8,2470.391,13.28,0.038,238.8
2021-05-29T08:34:03,42.805,6.029,-0.003,-0.014,0.027,101.0,100.0,100.0,13.4,1505.2,327.6,-0.8,1.8,2470.406,13.28,0.014,192.1
2021-05-29T08:37:03,42.805,6.029,-0.02,-0.012,0.024,100.0,100.0,100.0,13.4,1505.2,328.2,-0.7,1.8,2470.398,13.28,0.023,239.0
2021-05-29T08:40:03,42.805,6.029,-0.03,-0.019,-0.018,100.0,101.0,100.0,13.3,1505.2,325.2,-0.7,1.8,2470.401,13.28,0.035,237.7
2021-05-29T08:43:03,42.805,6.029,-0.028,-0.019,-0.023,100.0,100.0,99.0,13.4,1505.2,327.0,-0.7,1.8,2470.428,13.28,0.033,235.8
2021-05-29T08:46:03,42.805,6.029,-0.026,-0.028,-0.024,99.0,100.0,101.0,13.4,1505.2,325.5,-0.7,1.8,2470.402,13.28,0.038,222.9
2021-05-29T08:49:03,42.805,6.029,-0.024,-0.015,0.021,100.0,100.0,100.0,13.4,1505.2,325.0,-0.8,1.8,2470.461,13.28,0.028,238.0
2021-05-29T08:52:03,42.805,6.029,-0.014,-0.02,-0.022,99.0,103.0,100.0,13.4,1505.2,328.5,-0.8,1.9,2470.41,13.28,0.024,215.0
2021-05-29T08:55:03,42.805,6.029,-0.01,-0.029,-0.018,101.0,101.0,99.0,13.4,1505.2,325.9,-0.7,1.8,2470.422,13.28,0.03,199.0
2021-05-29T08:58:03,42.805,6.029,-0.011,-0.017,0.022,101.0,100.0,101.0,13.3,1505.2,327.6,-0.7,1.8,2470.384,13.28,0.02,212.9
2021-05-29T09:04:03,42.805,6.029,-0.012,-0.029,0.016,99.0,101.0,100.0,13.3,1505.2,324.6,-0.8,1.8,2470.436,13.28,0.031,202.5
2021-05-29T09:07:03,42.805,6.029,-0.018,-0.024,-0.003,101.0,100.0,100.0,13.4,1505.2,328.9,-0.8,1.8,2470.439,13.28,0.03,216.9
2021-05-29T09:10:03,42.805,6.029,-0.025,-0.018,-0.016,100.0,100.0,100.0,13.3,1505.2,326.2,-0.8,1.8,2470.406,13.28,0.03,234.2
2021-05-29T09:13:03,42.805,6.029,0.002,-0.036,-0.018,101.0,100.0,101.0,13.4,1505.2,328.9,-0.8,1.8,2470.435,13.28,0.036,176.8
2021-05-29T09:16:03,42.805,6.029,-0.029,-0.017,0.013,100.0,101.0,101.0,13.4,1505.2,327.0,-0.8,1.8,2470.453,13.28,0.033,239.6
2021-05-29T09:19:03,42.805,6.029,-0.021,-0.007,0.034,101.0,101.0,100.0,13.4,1505.2,325.6,-0.7,1.8,2470.422,13.28,0.022,251.6
2021-05-29T09:22:03,42.805,6.029,-0.024,-0.031,-0.036,100.0,101.0,100.0,13.4,1505.2,327.8,-0.7,1.8,2470.429,13.28,0.039,217.7
2021-05-29T09:25:03,42.805,6.029,0.008,-0.025,-0.003,100.0,101.0,100.0,13.4,1505.2,328.2,-0.8,1.9,2470.421,13.28,0.026,162.3
2021-05-29T09:28:03,42.805,6.029,-0.036,-0.022,-0.018,100.0,100.0,99.0,13.3,1505.2,326.3,-0.7,1.8,2470.434,13.28,0.042,238.6
2021-05-29T09:31:03,42.805,6.029,-0.002,-0.017,-0.013,101.0,100.0,100.0,13.4,1505.2,327.3,-0.7,1.8,2470.421,13.28,0.017,186.7
2021-05-29T09:34:03,42.805,6.029,-0.032,-0.023,-0.003,100.0,100.0,100.0,13.4,1505.2,327.6,-0.8,1.9,2470.408,13.28,0.039,234.3
2021-05-29T09:37:03,42.805,6.029,-0.038,-0.018,-0.002,102.0,99.0,100.0,13.4,1505.2,325.7,-0.8,1.8,2470.403,13.28,0.042,244.7
2021-05-29T09:40:03,42.805,6.029,0.004,-0.041,-0.005,100.0,100.0,101.0,13.3,1505.2,325.1,-0.7,1.9,2470.459,13.28,0.041,174.4
2021-05-29T09:43:03,42.805,6.029,0.0,-0.033,0.003,100.0,101.0,101.0,13.4,1505.2,326.3,-0.8,1.8,2470.419,13.28,0.033,180.0
2021-05-29T09:46:03,42.805,6.029,-0.016,-0.015,-0.015,100.0,100.0,100.0,13.4,1505.2,328.9,-0.7,1.8,2470.399,13.28,0.021,226.9
2021-05-29T09:49:03,42.805,6.029,-0.011,-0.028,-0.016,101.0,101.0,100.0,13.4,1505.2,325.4,-0.7,1.8,2470.377,13.28,0.03,201.4
2021-05-29T09:52:03,42.805,6.029,0.004,-0.022,0.011,101.0,102.0,99.0,13.4,1505.2,325.7,-0.8,1.8,2470.377,13.28,0.022,169.7